Powrót do katalogu

XIGUANG 1-06

AktywnyNaukaSSO
NORAD 68203·PAYLOAD·🇨🇳 China
Ta nazwa satelity nie została jeszcze potwierdzona przez oficjalne źródła.

Wystrzelony Mar 16, 2026 z Jiuquan Satellite Launch Center

Loading…

Następne Przeloty (najbliższe 24 godziny)

TLE

ŚwieżeSource: Space-Track

Epoka: Sep 14, 2026, 22:04 UTC

1 68203U 26052F   26257.92004215  .00004842  00000-0  28116-3 0  9998
2 68203  97.5252 331.5442 0010237   5.7447 354.3899 15.12550903 27611

Śledź XIGUANG 1-06 w czasie rzeczywistym z AllMySat

Download on the App Store